When you browse on this site, cookies collect data to enhance your experience and personalize the content and advertising you see.
Visit our Privacy Policy to learn more. By continuing to use the site, you agree to this use of cookies and data.
  • In Czech Republic
  • List of Countries
  • For 7 days
  • Water Temperature
  • Weather Map
  • Weather Widgets
  • user-avatar
    Login

    Hourly Weather Biskira

    Today, 22 October, Tuesday

    Time Temperature Precipitation Wind Pressure Humidity
    00:00 +27°C° 0 mm 4 mps 751 mmHg 42%
    01:00 +27°C° 0 mm 4 mps 751 mmHg 41%
    02:00 +26°C° 0 mm 5 mps 750 mmHg 41%
    03:00 +26°C° 0 mm 5 mps 750 mmHg 40%
    04:00 +26°C° 0 mm 5 mps 750 mmHg 41%
    05:00 +26°C° 0 mm 6 mps 750 mmHg 43%
    06:00 +24°C° 0 mm 6 mps 750 mmHg 45%
    07:00 +27°C° 0 mm 7 mps 750 mmHg 44%
    08:00 +28°C° 0 mm 8 mps 750 mmHg 44%
    09:00 +29°C° 0 mm 9 mps 750 mmHg 44%
    10:00 +31°C° 0 mm 10 mps 749 mmHg 40%
    11:00 +32°C° 0 mm 10 mps 748 mmHg 37%
    12:00 +34°C° 0 mm 11 mps 748 mmHg 34%
    13:00 +34°C° 0 mm 11 mps 747 mmHg 33%
    14:00 +34°C° 0 mm 11 mps 746 mmHg 31%
    15:00 +34°C° 0 mm 11 mps 745 mmHg 30%
    16:00 +34°C° 0 mm 12 mps 745 mmHg 30%
    17:00 +33°C° 0 mm 12 mps 745 mmHg 31%
    18:00 +33°C° 0 mm 12 mps 745 mmHg 31%
    19:00 +32°C° 0 mm 13 mps 745 mmHg 33%
    20:00 +31°C° 0 mm 14 mps 745 mmHg 35%
    21:00 +31°C° 0 mm 15 mps 745 mmHg 36%
    22:00 +29°C° 0 mm 14 mps 746 mmHg 39%
    23:00 +29°C° 0 mm 14 mps 746 mmHg 42%

    Tomorrow, 23 October, Wednesday

    Time Temperature Precipitation Wind Pressure Humidity
    00:00 +28°C° 0 mm 13 mps 746 mmHg 45%
    01:00 +28°C° 0 mm 12 mps 745 mmHg 45%
    02:00 +28°C° 0 mm 11 mps 745 mmHg 46%
    03:00 +27°C° 0 mm 10 mps 745 mmHg 47%
    04:00 +27°C° 0.1 mm 10 mps 745 mmHg 48%
    05:00 +27°C° 0.1 mm 10 mps 745 mmHg 50%
    06:00 +26°C° 0.1 mm 10 mps 745 mmHg 51%
    07:00 +27°C° 0 mm 10 mps 746 mmHg 47%
    08:00 +28°C° 0 mm 11 mps 746 mmHg 42%
    09:00 +29°C° 0 mm 11 mps 747 mmHg 38%
    10:00 +31°C° 0 mm 10 mps 747 mmHg 32%
    11:00 +32°C° 0 mm 9 mps 747 mmHg 25%
    12:00 +33°C° 0 mm 8 mps 747 mmHg 19%
    13:00 +32°C° 0 mm 7 mps 747 mmHg 20%
    14:00 +30°C° 0 mm 7 mps 747 mmHg 21%
    15:00 +29°C° 0 mm 7 mps 747 mmHg 22%
    16:00 +28°C° 0 mm 7 mps 747 mmHg 24%
    17:00 +26°C° 0 mm 7 mps 748 mmHg 25%
    18:00 +24°C° 0 mm 8 mps 748 mmHg 27%
    19:00 +24°C° 0 mm 7 mps 749 mmHg 27%
    20:00 +23°C° 0 mm 7 mps 749 mmHg 28%
    21:00 +23°C° 0 mm 6 mps 750 mmHg 29%
    22:00 +22°C° 0 mm 7 mps 750 mmHg 30%
    23:00 +22°C° 0 mm 8 mps 750 mmHg 31%

    Day after tomorrow, 24 October, Thursday

    Time Temperature Precipitation Wind Pressure Humidity
    00:00 +21°C° 0 mm 8 mps 750 mmHg 32%
    01:00 +21°C° 0 mm 8 mps 750 mmHg 33%
    02:00 +21°C° 0 mm 8 mps 751 mmHg 34%
    03:00 +20°C° 0 mm 8 mps 751 mmHg 35%
    04:00 +20°C° 0 mm 8 mps 751 mmHg 36%
    05:00 +18°C° 0 mm 8 mps 751 mmHg 38%
    06:00 +18°C° 0 mm 9 mps 751 mmHg 39%
    07:00 +19°C° 0 mm 9 mps 751 mmHg 37%
    08:00 +21°C° 0 mm 9 mps 751 mmHg 35%
    09:00 +22°C° 0 mm 9 mps 752 mmHg 34%
    10:00 +23°C° 0 mm 9 mps 751 mmHg 31%
    11:00 +24°C° 0 mm 9 mps 751 mmHg 28%
    12:00 +26°C° 0 mm 9 mps 751 mmHg 25%
    13:00 +26°C° 0 mm 10 mps 751 mmHg 26%
    14:00 +26°C° 0 mm 10 mps 751 mmHg 27%
    15:00 +26°C° 0 mm 10 mps 751 mmHg 28%
    16:00 +24°C° 0 mm 10 mps 751 mmHg 32%
    17:00 +23°C° 0 mm 10 mps 751 mmHg 36%
    18:00 +22°C° 0 mm 10 mps 752 mmHg 40%
    19:00 +22°C° 0 mm 10 mps 752 mmHg 41%
    20:00 +21°C° 0 mm 9 mps 753 mmHg 42%
    21:00 +21°C° 0 mm 9 mps 753 mmHg 43%
    22:00 +19°C° 0 mm 9 mps 754 mmHg 46%
    23:00 +20°C° 0 mm 8 mps 754 mmHg 48%

    25 October, Friday

    Time Temperature Precipitation Wind Pressure Humidity
    00:00 +18°C° 0 mm 8 mps 754 mmHg 51%
    01:00 +18°C° 0 mm 7 mps 754 mmHg 52%
    02:00 +18°C° 0 mm 7 mps 754 mmHg 54%
    03:00 +17°C° 0 mm 7 mps 754 mmHg 55%
    04:00 +17°C° 0 mm 7 mps 754 mmHg 57%
    05:00 +17°C° 0 mm 6 mps 754 mmHg 58%
    06:00 +17°C° 0 mm 6 mps 754 mmHg 60%
    07:00 +19°C° 0 mm 6 mps 754 mmHg 55%
    08:00 +21°C° 0 mm 6 mps 755 mmHg 50%
    09:00 +22°C° 0 mm 6 mps 755 mmHg 44%
    10:00 +23°C° 0 mm 5 mps 755 mmHg 41%
    11:00 +25°C° 0 mm 5 mps 755 mmHg 38%
    12:00 +26°C° 0 mm 4 mps 754 mmHg 34%
    13:00 +26°C° 0 mm 4 mps 754 mmHg 33%
    14:00 +27°C° 0 mm 5 mps 754 mmHg 32%
    15:00 +27°C° 0 mm 5 mps 754 mmHg 31%
    16:00 +26°C° 0 mm 5 mps 754 mmHg 34%
    17:00 +24°C° 0 mm 6 mps 754 mmHg 37%
    18:00 +23°C° 0 mm 6 mps 755 mmHg 40%
    19:00 +22°C° 0 mm 6 mps 755 mmHg 43%
    20:00 +22°C° 0 mm 6 mps 755 mmHg 46%
    21:00 +21°C° 0 mm 5 mps 755 mmHg 48%
    22:00 +20°C° 0 mm 5 mps 755 mmHg 49%
    23:00 +20°C° 0 mm 5 mps 755 mmHg 50%

    26 October, Saturday

    Time Temperature Precipitation Wind Pressure Humidity
    00:00 +19°C° 0 mm 5 mps 755 mmHg 51%
    01:00 +19°C° 0 mm 5 mps 755 mmHg 52%
    02:00 +19°C° 0 mm 5 mps 755 mmHg 53%
    03:00 +17°C° 0 mm 5 mps 754 mmHg 54%
    04:00 +18°C° 0 mm 4 mps 754 mmHg 55%
    05:00 +18°C° 0 mm 4 mps 755 mmHg 56%
    06:00 +18°C° 0 mm 3 mps 755 mmHg 58%
    07:00 +19°C° 0 mm 3 mps 755 mmHg 53%
    08:00 +20°C° 0 mm 3 mps 755 mmHg 48%
    09:00 +22°C° 0 mm 3 mps 755 mmHg 43%
    10:00 +24°C° 0 mm 3 mps 754 mmHg 41%
    11:00 +25°C° 0 mm 3 mps 754 mmHg 38%
    12:00 +26°C° 0 mm 4 mps 754 mmHg 36%
    13:00 +26°C° 0 mm 4 mps 753 mmHg 35%
    14:00 +26°C° 0 mm 5 mps 753 mmHg 34%
    15:00 +27°C° 0 mm 5 mps 753 mmHg 33%
    16:00 +26°C° 0 mm 4 mps 753 mmHg 35%
    17:00 +25°C° 0 mm 4 mps 753 mmHg 37%
    18:00 +24°C° 0 mm 3 mps 753 mmHg 39%
    19:00 +24°C° 0 mm 3 mps 753 mmHg 40%
    20:00 +24°C° 0 mm 3 mps 753 mmHg 42%
    21:00 +23°C° 0 mm 4 mps 753 mmHg 43%
    22:00 +22°C° 0.2 mm 3 mps 753 mmHg 48%
    23:00 +21°C° 0.2 mm 2 mps 753 mmHg 53%

    27 October, Sunday

    Time Temperature Precipitation Wind Pressure Humidity
    00:00 +20°C° 0.2 mm 2 mps 753 mmHg 58%
    01:00 +20°C° 0.2 mm 2 mps 753 mmHg 60%
    02:00 +19°C° 0.2 mm 2 mps 753 mmHg 62%
    03:00 +19°C° 0.2 mm 2 mps 753 mmHg 64%
    04:00 +18°C° 0.1 mm 2 mps 753 mmHg 67%
    05:00 +18°C° 0.1 mm 2 mps 753 mmHg 69%
    06:00 +18°C° 0.1 mm 3 mps 753 mmHg 71%
    07:00 +18°C° 0 mm 2 mps 754 mmHg 67%
    08:00 +19°C° 0 mm 2 mps 754 mmHg 63%
    09:00 +20°C° 0 mm 2 mps 754 mmHg 59%
    10:00 +21°C° 0 mm 2 mps 754 mmHg 55%
    11:00 +23°C° 0 mm 2 mps 754 mmHg 51%
    12:00 +24°C° 0 mm 2 mps 753 mmHg 47%
    13:00 +24°C° 0 mm 2 mps 753 mmHg 45%
    14:00 +24°C° 0 mm 2 mps 753 mmHg 43%
    15:00 +25°C° 0 mm 2 mps 753 mmHg 41%
    16:00 +24°C° 0 mm 2 mps 753 mmHg 42%
    17:00 +24°C° 0 mm 2 mps 753 mmHg 44%
    18:00 +24°C° 0 mm 2 mps 753 mmHg 45%
    19:00 +23°C° 0 mm 2 mps 754 mmHg 48%
    20:00 +21°C° 0 mm 2 mps 754 mmHg 51%
    21:00 +21°C° 0 mm 3 mps 754 mmHg 54%
    22:00 +20°C° 0 mm 2 mps 754 mmHg 57%
    23:00 +21°C° 0 mm 1 mps 754 mmHg 60%

    28 October, Monday

    Time Temperature Precipitation Wind Pressure Humidity
    00:00 +18°C° 0 mm 0 mps 754 mmHg 63%
    01:00 +20°C° 0 mm 1 mps 754 mmHg 63%
    02:00 +20°C° 0 mm 1 mps 754 mmHg 63%
    03:00 +19°C° 0 mm 2 mps 754 mmHg 63%
    04:00 +19°C° 0 mm 2 mps 754 mmHg 62%
    05:00 +19°C° 0 mm 3 mps 754 mmHg 61%
    06:00 +18°C° 0 mm 3 mps 754 mmHg 60%
    07:00 +20°C° 0 mm 3 mps 754 mmHg 54%
    08:00 +21°C° 0 mm 4 mps 754 mmHg 49%
    09:00 +23°C° 0 mm 4 mps 754 mmHg 44%
    10:00 +25°C° 0 mm 3 mps 754 mmHg 41%
    11:00 +26°C° 0 mm 3 mps 754 mmHg 39%
    12:00 +27°C° 0 mm 3 mps 754 mmHg 36%
    13:00 +27°C° 0 mm 3 mps 753 mmHg 37%
    14:00 +27°C° 0 mm 3 mps 753 mmHg 37%
    15:00 +27°C° 0 mm 3 mps 752 mmHg 38%
    16:00 +26°C° 0 mm 2 mps 752 mmHg 41%
    17:00 +26°C° 0 mm 2 mps 752 mmHg 43%
    18:00 +25°C° 0 mm 2 mps 752 mmHg 46%
    19:00 +25°C° 0 mm 2 mps 753 mmHg 48%
    20:00 +24°C° 0 mm 3 mps 753 mmHg 51%
    21:00 +24°C° 0 mm 3 mps 753 mmHg 53%
    22:00 +24°C° 0 mm 3 mps 753 mmHg 53%
    23:00 +22°C° 0 mm 3 mps 753 mmHg 54%
    Show more